Location: Stockholm
(59.3330°N, 18.0500°E)
Time: 13:04:39
(UTC+02:00)

ISS - Pass Details

Date: 21 September 2022
Orbit: 414 x 417 km, 51.6° (Epoch: 01 October)

Event Time Altitude Azimuth Distance (km) Brightness Sun altitude
Rises 20:34:09 0° 239° (WSW) 2,363 0.6 -13.6°
Reaches altitude 10° 20:36:33 10° 223° (SW) 1,500 -0.7 -13.9°
Maximum altitude 20:39:11 21° 172° (S) 998 -2.2 -14.2°
Enters shadow 20:39:38 21° 160° (SSE) 1,017 -2.2 -14.2°
